Regional Weather Roundup
Issued by NWS

Home | Current Version | Previous Version | Text Only | Print | Product List | Glossary On
Versions: 1 2 3 4 5 6 7 8 9 10 11 12 13 14 15 16 17 18 19 20 21 22 23 24 25 26 27 28 29 30 31 32 33 34 35 36 37 38 39 40 41 42 43 44 45 46 47 48 49 50
000
ASUS45 KABQ 281810
RWRNM
WEATHER ROUNDUP FOR NEW MEXICO
NATIONAL WEATHER SERVICE ALBUQUERQUE NM
1200 PM MDT MON JUL 28 2014

NOTE: "FAIR" MEANS FEW OR NO CLOUDS BELOW 12,000 FEET AGL WITH NO
       SIGNIFICANT WEATHER OR OBSTRUCTIONS TO VISION.

      THIS PRODUCT IS RELEASED AS TWO VERSIONS.  ONE VERSION NEAR
      THE TOP OF THE HOUR CONTAINING PRELIMINARY DATA FROM ALBUQUERQUE
      AND OTHER STATIONS.  A FINAL VERSION WITH ADDITIONAL DATA IS
      ISSUED ABOUT 10 MINUTES AFTER THE HOUR.

NMZ501-503-504-510>518-281900-
NORTHWEST PLATEAU/NORTHCENTRAL MOUNTAINS

CITY           SKY/WX    TMP DP  RH WIND       PRES   REMARKS
FARMINGTON     MOSUNNY   79  53  40 SE7       30.37F
6HR MIN TEMP:  63; 6HR MAX TEMP:  79;

LOS ALAMOS     SUNNY     70  55  58 S9        30.52F
SANTA FE       MOSUNNY   75  55  49 S8        30.45F
6HR MIN TEMP:  59; 6HR MAX TEMP:  75;

TAOS           SUNNY     72  54  53 W8        30.52F
ANGEL FIRE     CLOUDY    68  52  57 W13G18    30.59S

$$
NMZ402-403-502-505>509-281900-
WESTCENTRAL MOUNTAINS/SOUTHWEST MOUNTAINS

CITY           SKY/WX    TMP DP  RH WIND       PRES   REMARKS
GALLUP         CLOUDY    75  55  49 VRB6      30.45F
6HR MIN TEMP:  58; 6HR MAX TEMP:  75; 6HR PCP:  0.01;

SILVER CITY    PTSUNNY   79  54  41 E15G23    30.39F

$$
NMZ407-409-411-412-281900-
SOUTHERN DESERTS

CITY           SKY/WX    TMP DP  RH WIND       PRES   REMARKS
LORDSBURG      FAIR      81  55  41 SE8       30.29F
DEMING         PTSUNNY   82  58  43 SE9       30.30F
6HR MIN TEMP:  70; 6HR MAX TEMP:  83; 6HR PCP:  0.01;

LAS CRUCES     CLOUDY    80  57  45 N5        30.31S
HOLLOMAN AFB   CLOUDY    77  66  68 NW12      30.28F
ALAMOGORDO     CLOUDY    77  61  57 NW7       30.31S
T OR C         CLOUDY    76  43  30 VRB3      30.35F
6HR MIN TEMP:  69; 6HR MAX TEMP:  76; 6HR PCP:  0.01;


$$
NMZ519>523-281900-
CENTRAL VALLEYS/CENTRAL HIGHLANDS

CITY           SKY/WX    TMP DP  RH WIND       PRES   REMARKS
ALBUQUERQUE    PTSUNNY   78  54  43 S9        30.40F
6HR MIN TEMP:  69; 6HR MAX TEMP:  78;

DOUBLE EAGLE   PTSUNNY   77  57  50 SE10      30.43F
MORIARTY ARPT  MOCLDY    74  54  49 SE14      30.47S
6HR MIN TEMP:  57; 6HR MAX TEMP:  75;

CLINES CORNERS PTSUNNY   68  56  65 E10       30.50F
6HR MIN TEMP:  56; 6HR MAX TEMP:  69;

BELEN          FAIR      79  54  42 SE12      30.38F
6HR MIN TEMP:  68; 6HR MAX TEMP:  79;

SOCORRO        FAIR      78  53  40 S8        30.36F
6HR MIN TEMP:  70; 6HR MAX TEMP:  79;


$$
NMZ524>526-539-540-281900-
SOUTHCENTRAL MOUNTAINS

CITY           SKY/WX    TMP DP  RH WIND       PRES   REMARKS
RUIDOSO        CLOUDY    68  54  60 S6        30.50F

$$
NMZ527>531-281900-
NORTHEAST HIGHLANDS/NORTHEAST PLAINS

CITY           SKY/WX    TMP DP  RH WIND       PRES   REMARKS
LAS VEGAS      MOSUNNY   68  57  68 S14       30.51F
6HR MIN TEMP:  54; 6HR MAX TEMP:  70;

RATON          NOT AVBL
CLAYTON        LGT RAIN  64  59  83 S16       30.42F
6HR MIN TEMP:  61; 6HR MAX TEMP:  64; 6HR PCP:  0.02;


$$
NMZ532>537-281900-
EASTCENTRAL PLAINS

CITY           SKY/WX    TMP DP  RH WIND       PRES   REMARKS
TUCUMCARI      PTSUNNY   79  60  52 SE6       30.36F
6HR MIN TEMP:  64; 6HR MAX TEMP:  79;

CANNON AFB     MOSUNNY   78  62  58 E15G21    30.37F
6HR MIN TEMP:  64; 6HR MAX TEMP:  79;

CLOVIS AIRPORT NOT AVBL

$$
NMZ028-029-538-281900-
SOUTHEAST PLAINS

CITY           SKY/WX    TMP DP  RH WIND       PRES   REMARKS
ROSWELL        CLOUDY    84  58  40 NE10      30.29S
6HR MIN TEMP:  75; 6HR MAX TEMP:  84;

ARTESIA        CLOUDY    84  57  39 N14G20    30.28S
CARLSBAD       CLOUDY    90  55  30 N17       30.25F
6HR MIN TEMP:  78; 6HR MAX TEMP:  90;

HOBBS          MOSUNNY   88  57  35 N14G21    30.29F


$$



USA.gov is the U.S. government's official web portal to all federal, state and local government web resources and services.